EW4498 Weather Reports


time (UTC)temp
C
wind
direction
speed
KPH
gust
KPH
rain 1hr
cm
rain 24hr
cm
rain mn
cm
humidity
%
barometer
mb
20260903074511 16 198 6.4 14.5 0.05 0.51 0.10 91 1010.6
20260903073014 16 202 6.4 12.9 0.05 0.51 0.10 92 1010.8
20260903071507 16 211 6.4 12.9 0.05 0.51 0.10 92 1010.8
20260903070006 16 205 3.2 8.0 0.05 0.51 0.08 92 1011.0
20260903063001 16 213 1.6 8.0 0.03 0.46 0.05 92 1011.4
20260903061600 16 187 4.8 9.7 0.03 0.46 0.05 92 1011.4
20260903060115 16 178 4.8 8.0 0.03 0.46 0.05 93 1011.6
20260903054556 16 213 1.6 9.7 0.00 0.43 0.03 93 1011.7
20260903053052 15 192 3.2 8.0 0.00 0.43 0.03 93 1011.9
20260903051549 15 217 1.6 6.4 0.00 0.43 0.03 93 1012.1
20260903050107 15 216 1.6 4.8 0.00 0.43 0.03 93 1012.2
20260903044543 15 206 3.2 8.0 0.03 0.43 0.03 93 1012.2
20260903043039 15 209 3.2 8.0 0.03 0.43 0.03 93 1012.4
20260903041536 15 218 1.6 4.8 0.03 0.43 0.03 93 1012.5
20260903040035 15 217 1.6 6.4 0.03 0.43 0.03 93 1012.7
20260903034534 15 222 1.6 6.4 0.00 0.43 0.00 93 1012.7
20260903033032 15 219 1.6 4.8 0.00 0.43 0.00 93 1012.8
20260903031530 15 218 1.6 6.4 0.00 0.43 0.00 93 1012.9
20260903030031 15 221 1.6 4.8 0.00 0.43 0.00 93 1012.9
20260903024528 15 213 1.6 8.0 0.00 0.43 0.00 93 1013.3
20260903023027 15 213 0.0 0.0 0.00 0.43 0.00 93 1013.2
20260903021529 15 214 0.0 0.0 0.00 0.43 0.00 93 1013.4
20260903020024 15 215 1.6 6.4 0.00 0.43 0.00 93 1013.6
20260903014523 15 201 0.0 4.8 0.00 0.43 0.00 93 1013.7
20260903013022 15 199 0.0 4.8 0.00 0.43 0.00 93 1013.8
20260903011520 15 198 1.6 8.0 0.00 0.43 0.00 92 1013.9
20260903010026 14 229 0.0 4.8 0.00 0.43 0.00 92 1014.0
20260903004518 14 229 0.0 0.0 0.00 0.43 0.00 92 1014.0
20260903003016 14 232 0.0 4.8 0.00 0.43 0.00 92 1014.1
20260903001515 14 233 3.2 6.4 0.00 0.43 0.00 92 1014.2
20260903000018 14 237 1.6 4.8 0.00 0.43 0.00 92 1014.2
20260902234517 14 240 1.6 4.8 0.00 0.43 0.00 92 1014.3
20260902233013 14 234 1.6 4.8 0.00 0.43 0.00 92 1014.3
20260902231526 14 220 1.6 6.4 0.00 0.43 0.00 91 1014.3
20260902230017 15 236 1.6 6.4 0.00 0.43 0.00 92 1014.3
20260902224510 15 225 1.6 8.0 0.00 0.43 0.00 92 1014.3
20260902223008 15 238 1.6 8.0 0.00 0.43 0.00 92 1014.4
20260902221503 15 241 3.2 8.0 0.00 0.43 0.00 92 1014.5
20260902220001 15 222 6.4 14.5 0.00 0.43 0.00 92 1014.5
20260902214501 14 220 0.0 9.7 0.00 0.43 0.43 91 1014.5
20260902213100 14 238 3.2 9.7 0.00 0.43 0.43 91 1014.4
20260902211559 15 223 1.6 8.0 0.00 0.43 0.43 91 1014.3
20260902210058 15 223 4.8 11.3 0.00 0.43 0.43 91 1014.3
20260902204559 15 223 4.8 11.3 0.00 0.43 0.43 91 1014.4
20260902203138 15 226 3.2 12.9 0.00 0.43 0.43 91 1014.5
20260902201551 15 227 4.8 11.3 0.00 0.43 0.43 91 1014.5
20260902200041 15 242 6.4 14.5 0.00 0.43 0.43 91 1014.6
20260902194642 15 243 3.2 9.7 0.00 0.43 0.43 91 1014.6
20260902193041 15 235 3.2 11.3 0.00 0.43 0.43 91 1014.5
20260902191522 14 229 3.2 6.4 0.00 0.43 0.43 90 1014.5
20260902190058 14 226 3.2 9.7 0.00 0.43 0.43 90 1014.5
20260902184551 14 235 1.6 8.0 0.00 0.43 0.43 89 1014.5
20260902183142 15 225 1.6 9.7 0.00 0.43 0.43 89 1014.4
20260902181554 15 229 6.4 14.5 0.05 0.43 0.43 89 1014.3
20260902180142 15 232 6.4 17.7 0.08 0.43 0.43 88 1014.4
20260902174552 15 225 8.0 16.1 0.08 0.43 0.43 88 1014.2
20260902173041 15 249 8.0 19.3 0.13 0.43 0.43 89 1014.2
20260902171642 16 194 6.4 14.5 0.08 0.41 0.41 90 1014.3
20260902164511 16 226 4.8 14.5 0.05 0.36 0.36 89 1014.5
20260902163119 16 239 4.8 11.3 0.00 0.33 0.33 89 1014.4
20260902161551 16 230 1.6 9.7 0.05 0.33 0.33 88 1014.5
20260902160041 16 222 4.8 9.7 0.10 0.33 0.33 88 1014.6
20260902154549 16 252 6.4 11.3 0.15 0.33 0.33 88 1014.5
20260902153047 15 238 4.8 14.5 0.28 0.33 0.33 89 1014.7
20260902151547 15 201 6.4 12.9 0.25 0.28 0.28 87 1014.8
20260902150046 16 221 4.8 14.5 0.20 0.23 0.23 87 1014.9
20260902144546 16 234 4.8 17.7 0.15 0.15 0.15 86 1014.8
20260902143043 17 217 6.4 20.9 0.03 0.05 0.05 83 1014.9
20260902141544 18 277 11.3 17.7 0.00 0.03 0.03 75 1014.6
20260902140042 20 236 6.4 22.5 0.00 0.03 0.03 70 1014.5
20260902134542 19 254 14.5 25.7 0.00 0.10 0.03 71 1014.5
20260902133041 20 235 11.3 27.4 0.00 0.10 0.03 70 1014.6
20260902131540 19 234 11.3 25.7 0.00 0.10 0.03 72 1014.5
20260902130039 19 229 16.1 33.8 0.00 0.10 0.03 72 1014.7
20260902124538 20 225 12.9 24.1 0.00 0.10 0.03 72 1014.6
20260902123043 19 190 11.3 27.4 0.00 0.10 0.03 76 1014.8
20260902121536 19 274 8.0 24.1 0.00 0.10 0.03 76 1014.8
20260902120037 19 186 11.3 19.3 0.00 0.10 0.03 77 1014.9
20260902114539 20 220 11.3 25.7 0.00 0.10 0.03 74 1015.0
20260902113040 20 250 9.7 25.7 0.00 0.10 0.03 71 1014.9
20260902111533 21 279 9.7 29.0 0.00 0.10 0.03 68 1015.0
20260902110031 20 236 14.5 29.0 0.00 0.10 0.03 74 1015.0
20260902104530 20 218 8.0 27.4 0.00 0.13 0.03 72 1015.0
20260902103030 20 202 8.0 29.0 0.00 0.13 0.03 72 1015.0
20260902101529 20 247 11.3 30.6 0.00 0.13 0.03 73 1015.0
20260902100026 19 213 9.7 24.1 0.00 0.13 0.03 75 1015.0
20260902094520 18 244 12.9 30.6 0.00 0.13 0.03 76 1015.1
20260902093019 19 224 6.4 19.3 0.00 0.13 0.03 78 1015.1
20260902091516 18 232 12.9 24.1 0.00 0.13 0.03 77 1015.1
20260902090019 18 251 9.7 19.3 0.00 0.13 0.03 78 1015.2
20260902084522 18 227 8.0 17.7 0.00 0.13 0.03 81 1015.3
20260902083010 17 228 4.8 17.7 0.00 0.13 0.03 84 1015.2
20260902081507 17 214 6.4 17.7 0.00 0.13 0.03 83 1015.2
20260902080005 17 236 9.7 19.3 0.00 0.13 0.03 83 1015.2